Location: Asheville, NC
(35.6000°N, 82.5500°W)
Time: 08:01:56
(UTC-04:00)

N. Korean satellite - Pass Details

Date: 10 October 2017
Orbit: 459 x 517 km, 97.2° (Epoch: 22 October)

Event Time Altitude Azimuth Distance (km) Brightness Sun altitude
Rises 19:21:08 0° 158° (SSE) 2,570 10.1 -4.9°
Reaches altitude 10° 19:23:15 10° 153° (SSE) 1,682 9.1 -5.3°
Maximum altitude 19:26:46 53° 76° (ENE) 605 6.7 -6.0°
Drops below altitude 10° 19:30:16 10° 359° (N) 1,661 9.3 -6.8°
Sets 19:32:20 0° 355° (N) 2,535 10.2 -7.2°
